owner,sensor,date,latitude,longitude,air_pressure(mBar),qcFlag 
WAVCIS,ioos:station:WAVCIS:CSI15:1,2012-11-01T00:00:00Z,28.8332,-90.8320,1013.78,11111222 
WAVCIS,ioos:station:WAVCIS:CSI15:1,2012-11-01T01:00:00Z,28.8332,-90.8320,1014.06,11111222 
WAVCIS,ioos:station:WAVCIS:CSI15:1,2012-11-01T02:00:00Z,28.8332,-90.8320,1014.33,11111222 
WAVCIS,ioos:station:WAVCIS:CSI15:1,2012-11-01T03:00:00Z,28.8332,-90.8320,1014.68,11111222 
WAVCIS,ioos:station:WAVCIS:CSI15:1,2012-11-01T04:00:00Z,28.8332,-90.8320,1014.52,11111222 
WAVCIS,ioos:station:WAVCIS:CSI15:1,2012-11-01T05:00:00Z,28.8332,-90.8320,1014.55,11111222 
WAVCIS,ioos:station:WAVCIS:CSI15:1,2012-11-01T06:00:00Z,28.8332,-90.8320,1014.56,11111222 
WAVCIS,ioos:station:WAVCIS:CSI15:1,2012-11-01T07:00:00Z,28.8332,-90.8320,1014.58,11111222 
WAVCIS,ioos:station:WAVCIS:CSI15:1,2012-11-01T08:00:00Z,28.8332,-90.8320,1014.26,11111222 
WAVCIS,ioos:station:WAVCIS:CSI15:1,2012-11-01T09:00:00Z,28.8332,-90.8320,1014.09,11111222 
WAVCIS,ioos:station:WAVCIS:CSI15:1,2012-11-01T10:00:00Z,28.8332,-90.8320,1014.16,11111222 
WAVCIS,ioos:station:WAVCIS:CSI15:1,2012-11-01T11:00:00Z,28.8332,-90.8320,1014.58,11111222 
WAVCIS,ioos:station:WAVCIS:CSI15:1,2012-11-01T12:00:00Z,28.8332,-90.8320,1015.04,11111222 
WAVCIS,ioos:station:WAVCIS:CSI15:1,2012-11-01T13:00:00Z,28.8332,-90.8320,1015.41,11111222 
WAVCIS,ioos:station:WAVCIS:CSI15:1,2012-11-01T14:00:00Z,28.8332,-90.8320,1015.96,11111222 
WAVCIS,ioos:station:WAVCIS:CSI15:1,2012-11-01T15:00:00Z,28.8332,-90.8320,1016.45,11111222 
WAVCIS,ioos:station:WAVCIS:CSI15:1,2012-11-01T16:00:00Z,28.8332,-90.8320,1016.75,11111222 
WAVCIS,ioos:station:WAVCIS:CSI15:1,2012-11-01T17:00:00Z,28.8332,-90.8320,1016.5,11111222 
WAVCIS,ioos:station:WAVCIS:CSI15:1,2012-11-01T18:00:00Z,28.8332,-90.8320,1015.75,11111222 
WAVCIS,ioos:station:WAVCIS:CSI15:1,2012-11-01T19:00:00Z,28.8332,-90.8320,1015.0,11111222 
WAVCIS,ioos:station:WAVCIS:CSI15:1,2012-11-01T20:00:00Z,28.8332,-90.8320,1014.38,11111222 
WAVCIS,ioos:station:WAVCIS:CSI15:1,2012-11-01T21:00:00Z,28.8332,-90.8320,1014.2,11111222 
WAVCIS,ioos:station:WAVCIS:CSI15:1,2012-11-01T22:00:00Z,28.8332,-90.8320,1014.12,11111222 
WAVCIS,ioos:station:WAVCIS:CSI15:1,2012-11-01T23:00:00Z,28.8332,-90.8320,1014.24,11111222 
WAVCIS,ioos:station:WAVCIS:CSI15:1,2012-11-02T00:00:00Z,28.8332,-90.8320,1014.36,11111222 
WAVCIS,ioos:station:WAVCIS:CSI15:1,2012-11-02T01:00:00Z,28.8332,-90.8320,1014.63,11111222 
WAVCIS,ioos:station:WAVCIS:CSI15:1,2012-11-02T02:00:00Z,28.8332,-90.8320,1015.16,11111222 
WAVCIS,ioos:station:WAVCIS:CSI15:1,2012-11-02T03:00:00Z,28.8332,-90.8320,1015.56,11111222 
WAVCIS,ioos:station:WAVCIS:CSI15:1,2012-11-02T04:00:00Z,28.8332,-90.8320,1015.63,11111222 
WAVCIS,ioos:station:WAVCIS:CSI15:1,2012-11-02T05:00:00Z,28.8332,-90.8320,1015.7,11111222 
WAVCIS,ioos:station:WAVCIS:CSI15:1,2012-11-02T06:00:00Z,28.8332,-90.8320,1015.18,11111222 
WAVCIS,ioos:station:WAVCIS:CSI15:1,2012-11-02T07:00:00Z,28.8332,-90.8320,1014.87,11111222 
WAVCIS,ioos:station:WAVCIS:CSI15:1,2012-11-02T08:00:00Z,28.8332,-90.8320,1014.67,11111222 
WAVCIS,ioos:station:WAVCIS:CSI15:1,2012-11-02T09:00:00Z,28.8332,-90.8320,1014.58,11111222 
WAVCIS,ioos:station:WAVCIS:CSI15:1,2012-11-02T10:00:00Z,28.8332,-90.8320,1014.71,11111222 
WAVCIS,ioos:station:WAVCIS:CSI15:1,2012-11-02T11:00:00Z,28.8332,-90.8320,1015.24,11111222 
WAVCIS,ioos:station:WAVCIS:CSI15:1,2012-11-02T12:00:00Z,28.8332,-90.8320,1015.62,11111222 
WAVCIS,ioos:station:WAVCIS:CSI15:1,2012-11-02T13:00:00Z,28.8332,-90.8320,1016.16,11111222 
WAVCIS,ioos:station:WAVCIS:CSI15:1,2012-11-02T14:00:00Z,28.8332,-90.8320,1016.8,11111222 
WAVCIS,ioos:station:WAVCIS:CSI15:1,2012-11-02T15:00:00Z,28.8332,-90.8320,1017.22,11111222 
WAVCIS,ioos:station:WAVCIS:CSI15:1,2012-11-02T16:00:00Z,28.8332,-90.8320,1017.43,11111222 
WAVCIS,ioos:station:WAVCIS:CSI15:1,2012-11-02T17:00:00Z,28.8332,-90.8320,1017.16,11111222 
WAVCIS,ioos:station:WAVCIS:CSI15:1,2012-11-02T18:00:00Z,28.8332,-90.8320,1016.68,11111222 
WAVCIS,ioos:station:WAVCIS:CSI15:1,2012-11-02T19:00:00Z,28.8332,-90.8320,1015.93,11111222 
WAVCIS,ioos:station:WAVCIS:CSI15:1,2012-11-02T20:00:00Z,28.8332,-90.8320,1015.58,11111222 
WAVCIS,ioos:station:WAVCIS:CSI15:1,2012-11-02T21:00:00Z,28.8332,-90.8320,1015.38,11111222 
WAVCIS,ioos:station:WAVCIS:CSI15:1,2012-11-02T22:00:00Z,28.8332,-90.8320,1015.34,11111222 
WAVCIS,ioos:station:WAVCIS:CSI15:1,2012-11-02T23:00:00Z,28.8332,-90.8320,1015.44,11111222 
WAVCIS,ioos:station:WAVCIS:CSI15:1,2012-11-03T00:00:00Z,28.8332,-90.8320,1015.66,11111222 
WAVCIS,ioos:station:WAVCIS:CSI15:1,2012-11-03T01:00:00Z,28.8332,-90.8320,1016.13,11111222 
WAVCIS,ioos:station:WAVCIS:CSI15:1,2012-11-03T02:00:00Z,28.8332,-90.8320,1016.51,11111222 
WAVCIS,ioos:station:WAVCIS:CSI15:1,2012-11-03T03:00:00Z,28.8332,-90.8320,1016.8,11111222 
WAVCIS,ioos:station:WAVCIS:CSI15:1,2012-11-03T04:00:00Z,28.8332,-90.8320,1016.83,11111222 
WAVCIS,ioos:station:WAVCIS:CSI15:1,2012-11-03T05:00:00Z,28.8332,-90.8320,1016.79,11111222 
WAVCIS,ioos:station:WAVCIS:CSI15:1,2012-11-03T06:00:00Z,28.8332,-90.8320,1016.36,11111222 
WAVCIS,ioos:station:WAVCIS:CSI15:1,2012-11-03T07:00:00Z,28.8332,-90.8320,1016.32,11111222 
WAVCIS,ioos:station:WAVCIS:CSI15:1,2012-11-03T08:00:00Z,28.8332,-90.8320,1016.05,11111222 
WAVCIS,ioos:station:WAVCIS:CSI15:1,2012-11-03T09:00:00Z,28.8332,-90.8320,1016.06,11111222 
WAVCIS,ioos:station:WAVCIS:CSI15:1,2012-11-03T10:00:00Z,28.8332,-90.8320,1016.34,11111222 
WAVCIS,ioos:station:WAVCIS:CSI15:1,2012-11-03T11:00:00Z,28.8332,-90.8320,1016.6,11111222 
WAVCIS,ioos:station:WAVCIS:CSI15:1,2012-11-03T12:00:00Z,28.8332,-90.8320,1016.88,11111222 
WAVCIS,ioos:station:WAVCIS:CSI15:1,2012-11-03T13:00:00Z,28.8332,-90.8320,1017.58,11111222 
WAVCIS,ioos:station:WAVCIS:CSI15:1,2012-11-03T14:00:00Z,28.8332,-90.8320,1018.28,11111222 
WAVCIS,ioos:station:WAVCIS:CSI15:1,2012-11-03T15:00:00Z,28.8332,-90.8320,1018.76,11111222 
WAVCIS,ioos:station:WAVCIS:CSI15:1,2012-11-03T16:00:00Z,28.8332,-90.8320,1018.98,11111222 
WAVCIS,ioos:station:WAVCIS:CSI15:1,2012-11-03T17:00:00Z,28.8332,-90.8320,1018.73,11111222 
WAVCIS,ioos:station:WAVCIS:CSI15:1,2012-11-03T18:00:00Z,28.8332,-90.8320,1018.25,11111222 
WAVCIS,ioos:station:WAVCIS:CSI15:1,2012-11-03T19:00:00Z,28.8332,-90.8320,1017.49,11111222 
WAVCIS,ioos:station:WAVCIS:CSI15:1,2012-11-03T20:00:00Z,28.8332,-90.8320,1016.91,11111222 
WAVCIS,ioos:station:WAVCIS:CSI15:1,2012-11-03T21:00:00Z,28.8332,-90.8320,1016.58,11111222 
WAVCIS,ioos:station:WAVCIS:CSI15:1,2012-11-03T22:00:00Z,28.8332,-90.8320,1016.29,11111222 
WAVCIS,ioos:station:WAVCIS:CSI15:1,2012-11-03T23:00:00Z,28.8332,-90.8320,1016.38,11111222 
WAVCIS,ioos:station:WAVCIS:CSI15:1,2012-11-04T00:00:00Z,28.8332,-90.8320,1016.92,11111222 
WAVCIS,ioos:station:WAVCIS:CSI15:1,2012-11-04T01:00:00Z,28.8332,-90.8320,1017.24,11111222 
WAVCIS,ioos:station:WAVCIS:CSI15:1,2012-11-04T02:00:00Z,28.8332,-90.8320,1017.69,11111222 
WAVCIS,ioos:station:WAVCIS:CSI15:1,2012-11-04T03:00:00Z,28.8332,-90.8320,1017.65,11111222 
WAVCIS,ioos:station:WAVCIS:CSI15:1,2012-11-04T04:00:00Z,28.8332,-90.8320,1017.38,11111222 
WAVCIS,ioos:station:WAVCIS:CSI15:1,2012-11-04T05:00:00Z,28.8332,-90.8320,1017.02,11111222 
WAVCIS,ioos:station:WAVCIS:CSI15:1,2012-11-04T06:00:00Z,28.8332,-90.8320,1016.72,11111222 
WAVCIS,ioos:station:WAVCIS:CSI15:1,2012-11-04T07:00:00Z,28.8332,-90.8320,1016.42,11111222 
WAVCIS,ioos:station:WAVCIS:CSI15:1,2012-11-04T08:00:00Z,28.8332,-90.8320,1016.53,11111222 
WAVCIS,ioos:station:WAVCIS:CSI15:1,2012-11-04T09:00:00Z,28.8332,-90.8320,1016.13,11111222 
WAVCIS,ioos:station:WAVCIS:CSI15:1,2012-11-04T10:00:00Z,28.8332,-90.8320,1015.81,11111222 
WAVCIS,ioos:station:WAVCIS:CSI15:1,2012-11-04T11:00:00Z,28.8332,-90.8320,1016.2,11111222 
WAVCIS,ioos:station:WAVCIS:CSI15:1,2012-11-04T12:00:00Z,28.8332,-90.8320,1016.61,11111222 
WAVCIS,ioos:station:WAVCIS:CSI15:1,2012-11-04T13:00:00Z,28.8332,-90.8320,1017.06,11111222 
WAVCIS,ioos:station:WAVCIS:CSI15:1,2012-11-04T14:00:00Z,28.8332,-90.8320,1017.14,11111222 
WAVCIS,ioos:station:WAVCIS:CSI15:1,2012-11-04T15:00:00Z,28.8332,-90.8320,1017.07,11111222 
WAVCIS,ioos:station:WAVCIS:CSI15:1,2012-11-04T16:00:00Z,28.8332,-90.8320,1017.21,11111222 
WAVCIS,ioos:station:WAVCIS:CSI15:1,2012-11-04T17:00:00Z,28.8332,-90.8320,1016.69,11111222 
WAVCIS,ioos:station:WAVCIS:CSI15:1,2012-11-04T18:00:00Z,28.8332,-90.8320,1016.05,11111222 
WAVCIS,ioos:station:WAVCIS:CSI15:1,2012-11-04T19:00:00Z,28.8332,-90.8320,1015.37,11111222 
WAVCIS,ioos:station:WAVCIS:CSI15:1,2012-11-04T20:00:00Z,28.8332,-90.8320,1015.05,11111222 
WAVCIS,ioos:station:WAVCIS:CSI15:1,2012-11-04T21:00:00Z,28.8332,-90.8320,1014.96,11111222 
WAVCIS,ioos:station:WAVCIS:CSI15:1,2012-11-04T22:00:00Z,28.8332,-90.8320,1015.05,11111222 
WAVCIS,ioos:station:WAVCIS:CSI15:1,2012-11-04T23:00:00Z,28.8332,-90.8320,1015.28,11111222 
WAVCIS,ioos:station:WAVCIS:CSI15:1,2012-11-05T00:00:00Z,28.8332,-90.8320,1015.13,11111222 
WAVCIS,ioos:station:WAVCIS:CSI15:1,2012-11-05T01:00:00Z,28.8332,-90.8320,1015.5,11111222 
WAVCIS,ioos:station:WAVCIS:CSI15:1,2012-11-05T02:00:00Z,28.8332,-90.8320,1015.67,11111222 
WAVCIS,ioos:station:WAVCIS:CSI15:1,2012-11-05T03:00:00Z,28.8332,-90.8320,1015.79,11111222 
WAVCIS,ioos:station:WAVCIS:CSI15:1,2012-11-05T04:00:00Z,28.8332,-90.8320,1015.84,11111222 
WAVCIS,ioos:station:WAVCIS:CSI15:1,2012-11-05T05:00:00Z,28.8332,-90.8320,1015.73,11111222 
WAVCIS,ioos:station:WAVCIS:CSI15:1,2012-11-05T06:00:00Z,28.8332,-90.8320,1015.37,11111222 
WAVCIS,ioos:station:WAVCIS:CSI15:1,2012-11-05T07:00:00Z,28.8332,-90.8320,1015.16,11111222 
WAVCIS,ioos:station:WAVCIS:CSI15:1,2012-11-05T08:00:00Z,28.8332,-90.8320,1014.93,11111222 
WAVCIS,ioos:station:WAVCIS:CSI15:1,2012-11-05T09:00:00Z,28.8332,-90.8320,1014.81,11111222 
WAVCIS,ioos:station:WAVCIS:CSI15:1,2012-11-05T10:00:00Z,28.8332,-90.8320,1014.69,11111222 
WAVCIS,ioos:station:WAVCIS:CSI15:1,2012-11-05T11:00:00Z,28.8332,-90.8320,1014.89,11111222 
WAVCIS,ioos:station:WAVCIS:CSI15:1,2012-11-05T12:00:00Z,28.8332,-90.8320,1014.98,11111222 
WAVCIS,ioos:station:WAVCIS:CSI15:1,2012-11-05T13:00:00Z,28.8332,-90.8320,1015.28,11111222 
WAVCIS,ioos:station:WAVCIS:CSI15:1,2012-11-05T14:00:00Z,28.8332,-90.8320,1015.89,11111222 
WAVCIS,ioos:station:WAVCIS:CSI15:1,2012-11-05T15:00:00Z,28.8332,-90.8320,1015.95,11111222 
WAVCIS,ioos:station:WAVCIS:CSI15:1,2012-11-05T16:00:00Z,28.8332,-90.8320,1015.92,11111222 
WAVCIS,ioos:station:WAVCIS:CSI15:1,2012-11-05T17:00:00Z,28.8332,-90.8320,1015.48,11111222 
WAVCIS,ioos:station:WAVCIS:CSI15:1,2012-11-05T18:00:00Z,28.8332,-90.8320,1014.86,11111222 
WAVCIS,ioos:station:WAVCIS:CSI15:1,2012-11-05T19:00:00Z,28.8332,-90.8320,1013.95,11111222 
WAVCIS,ioos:station:WAVCIS:CSI15:1,2012-11-05T20:00:00Z,28.8332,-90.8320,1013.0,11111222 
WAVCIS,ioos:station:WAVCIS:CSI15:1,2012-11-05T21:00:00Z,28.8332,-90.8320,1012.69,11111222 
WAVCIS,ioos:station:WAVCIS:CSI15:1,2012-11-05T22:00:00Z,28.8332,-90.8320,1012.48,11111222 
WAVCIS,ioos:station:WAVCIS:CSI15:1,2012-11-05T23:00:00Z,28.8332,-90.8320,1012.35,11111222 
WAVCIS,ioos:station:WAVCIS:CSI15:1,2012-11-06T00:00:00Z,28.8332,-90.8320,1012.15,11111222 
WAVCIS,ioos:station:WAVCIS:CSI15:1,2012-11-06T01:00:00Z,28.8332,-90.8320,1012.36,11111222 
WAVCIS,ioos:station:WAVCIS:CSI15:1,2012-11-06T02:00:00Z,28.8332,-90.8320,1012.58,11111222 
WAVCIS,ioos:station:WAVCIS:CSI15:1,2012-11-06T03:00:00Z,28.8332,-90.8320,1012.62,11111222 
WAVCIS,ioos:station:WAVCIS:CSI15:1,2012-11-06T04:00:00Z,28.8332,-90.8320,1012.39,11111222 
WAVCIS,ioos:station:WAVCIS:CSI15:1,2012-11-06T05:00:00Z,28.8332,-90.8320,1012.19,11111222 
WAVCIS,ioos:station:WAVCIS:CSI15:1,2012-11-06T06:00:00Z,28.8332,-90.8320,1011.96,11111222 
WAVCIS,ioos:station:WAVCIS:CSI15:1,2012-11-06T07:00:00Z,28.8332,-90.8320,1012.18,11111222 
WAVCIS,ioos:station:WAVCIS:CSI15:1,2012-11-06T08:00:00Z,28.8332,-90.8320,1012.18,11111222 
WAVCIS,ioos:station:WAVCIS:CSI15:1,2012-11-06T09:00:00Z,28.8332,-90.8320,1012.29,11111222 
WAVCIS,ioos:station:WAVCIS:CSI15:1,2012-11-06T10:00:00Z,28.8332,-90.8320,1012.75,11111222 
WAVCIS,ioos:station:WAVCIS:CSI15:1,2012-11-06T11:00:00Z,28.8332,-90.8320,1012.82,11111222 
WAVCIS,ioos:station:WAVCIS:CSI15:1,2012-11-06T12:00:00Z,28.8332,-90.8320,1013.22,11111222 
WAVCIS,ioos:station:WAVCIS:CSI15:1,2012-11-06T13:00:00Z,28.8332,-90.8320,1013.83,11111222 
WAVCIS,ioos:station:WAVCIS:CSI15:1,2012-11-06T14:00:00Z,28.8332,-90.8320,1014.48,11111222 
WAVCIS,ioos:station:WAVCIS:CSI15:1,2012-11-06T15:00:00Z,28.8332,-90.8320,1014.92,11111222 
WAVCIS,ioos:station:WAVCIS:CSI15:1,2012-11-06T16:00:00Z,28.8332,-90.8320,1015.22,11111222 
WAVCIS,ioos:station:WAVCIS:CSI15:1,2012-11-06T17:00:00Z,28.8332,-90.8320,1015.11,11111222 
WAVCIS,ioos:station:WAVCIS:CSI15:1,2012-11-06T18:00:00Z,28.8332,-90.8320,1014.68,11111222 
WAVCIS,ioos:station:WAVCIS:CSI15:1,2012-11-06T19:00:00Z,28.8332,-90.8320,1013.8,11111222 
WAVCIS,ioos:station:WAVCIS:CSI15:1,2012-11-06T20:00:00Z,28.8332,-90.8320,1013.62,11111222 
WAVCIS,ioos:station:WAVCIS:CSI15:1,2012-11-06T21:00:00Z,28.8332,-90.8320,1013.82,11111222 
WAVCIS,ioos:station:WAVCIS:CSI15:1,2012-11-06T22:00:00Z,28.8332,-90.8320,1013.74,11111222 
WAVCIS,ioos:station:WAVCIS:CSI15:1,2012-11-06T23:00:00Z,28.8332,-90.8320,1013.93,11111222 
WAVCIS,ioos:station:WAVCIS:CSI15:1,2012-11-07T00:00:00Z,28.8332,-90.8320,1014.37,11111222 
WAVCIS,ioos:station:WAVCIS:CSI15:1,2012-11-07T01:00:00Z,28.8332,-90.8320,1014.99,11111222 
WAVCIS,ioos:station:WAVCIS:CSI15:1,2012-11-07T02:00:00Z,28.8332,-90.8320,1015.46,11111222 
WAVCIS,ioos:station:WAVCIS:CSI15:1,2012-11-07T03:00:00Z,28.8332,-90.8320,1015.78,11111222 
WAVCIS,ioos:station:WAVCIS:CSI15:1,2012-11-07T04:00:00Z,28.8332,-90.8320,1015.87,11111222 
WAVCIS,ioos:station:WAVCIS:CSI15:1,2012-11-07T05:00:00Z,28.8332,-90.8320,1015.91,11111222 
WAVCIS,ioos:station:WAVCIS:CSI15:1,2012-11-07T06:00:00Z,28.8332,-90.8320,1015.99,11111222 
WAVCIS,ioos:station:WAVCIS:CSI15:1,2012-11-07T07:00:00Z,28.8332,-90.8320,1016.23,11111222 
WAVCIS,ioos:station:WAVCIS:CSI15:1,2012-11-07T08:00:00Z,28.8332,-90.8320,1016.16,11111222 
WAVCIS,ioos:station:WAVCIS:CSI15:1,2012-11-07T09:00:00Z,28.8332,-90.8320,1016.22,11111222 
WAVCIS,ioos:station:WAVCIS:CSI15:1,2012-11-07T10:00:00Z,28.8332,-90.8320,1016.32,11111222 
WAVCIS,ioos:station:WAVCIS:CSI15:1,2012-11-07T11:00:00Z,28.8332,-90.8320,1016.25,11111222 
WAVCIS,ioos:station:WAVCIS:CSI15:1,2012-11-07T12:00:00Z,28.8332,-90.8320,1016.45,11111222 
WAVCIS,ioos:station:WAVCIS:CSI15:1,2012-11-07T13:00:00Z,28.8332,-90.8320,1016.99,11111222 
WAVCIS,ioos:station:WAVCIS:CSI15:1,2012-11-07T14:00:00Z,28.8332,-90.8320,1017.38,11111222 
WAVCIS,ioos:station:WAVCIS:CSI15:1,2012-11-07T15:00:00Z,28.8332,-90.8320,1017.84,11111222 
WAVCIS,ioos:station:WAVCIS:CSI15:1,2012-11-07T16:00:00Z,28.8332,-90.8320,1018.06,11111222 
WAVCIS,ioos:station:WAVCIS:CSI15:1,2012-11-07T17:00:00Z,28.8332,-90.8320,1017.79,11111222 
WAVCIS,ioos:station:WAVCIS:CSI15:1,2012-11-07T18:00:00Z,28.8332,-90.8320,1016.87,11111222 
WAVCIS,ioos:station:WAVCIS:CSI15:1,2012-11-07T19:00:00Z,28.8332,-90.8320,1015.7,11111222 
WAVCIS,ioos:station:WAVCIS:CSI15:1,2012-11-07T20:00:00Z,28.8332,-90.8320,1015.14,11111222 
WAVCIS,ioos:station:WAVCIS:CSI15:1,2012-11-07T21:00:00Z,28.8332,-90.8320,1014.97,11111222 
WAVCIS,ioos:station:WAVCIS:CSI15:1,2012-11-07T22:00:00Z,28.8332,-90.8320,1015.01,11111222 
WAVCIS,ioos:station:WAVCIS:CSI15:1,2012-11-07T23:00:00Z,28.8332,-90.8320,1015.22,11111222 
WAVCIS,ioos:station:WAVCIS:CSI15:1,2012-11-08T00:00:00Z,28.8332,-90.8320,1015.52,11111222 
WAVCIS,ioos:station:WAVCIS:CSI15:1,2012-11-08T01:00:00Z,28.8332,-90.8320,1015.9,11111222 
WAVCIS,ioos:station:WAVCIS:CSI15:1,2012-11-08T02:00:00Z,28.8332,-90.8320,1016.5,11111222 
WAVCIS,ioos:station:WAVCIS:CSI15:1,2012-11-08T03:00:00Z,28.8332,-90.8320,1017.29,11111222 
WAVCIS,ioos:station:WAVCIS:CSI15:1,2012-11-08T04:00:00Z,28.8332,-90.8320,1017.59,11111222 
WAVCIS,ioos:station:WAVCIS:CSI15:1,2012-11-08T05:00:00Z,28.8332,-90.8320,1017.77,11111222 
WAVCIS,ioos:station:WAVCIS:CSI15:1,2012-11-08T06:00:00Z,28.8332,-90.8320,1017.8,11111222 
WAVCIS,ioos:station:WAVCIS:CSI15:1,2012-11-08T07:00:00Z,28.8332,-90.8320,1017.97,11111222 
WAVCIS,ioos:station:WAVCIS:CSI15:1,2012-11-08T08:00:00Z,28.8332,-90.8320,1018.11,11111222 
WAVCIS,ioos:station:WAVCIS:CSI15:1,2012-11-08T09:00:00Z,28.8332,-90.8320,1018.35,11111222 
WAVCIS,ioos:station:WAVCIS:CSI15:1,2012-11-08T10:00:00Z,28.8332,-90.8320,1018.61,11111222 
WAVCIS,ioos:station:WAVCIS:CSI15:1,2012-11-08T11:00:00Z,28.8332,-90.8320,1019.07,11111222 
WAVCIS,ioos:station:WAVCIS:CSI15:1,2012-11-08T12:00:00Z,28.8332,-90.8320,1019.3,11111222 
WAVCIS,ioos:station:WAVCIS:CSI15:1,2012-11-08T13:00:00Z,28.8332,-90.8320,1020.26,11111222 
WAVCIS,ioos:station:WAVCIS:CSI15:1,2012-11-08T14:00:00Z,28.8332,-90.8320,1020.94,11111222 
WAVCIS,ioos:station:WAVCIS:CSI15:1,2012-11-08T15:00:00Z,28.8332,-90.8320,1021.72,11111222 
WAVCIS,ioos:station:WAVCIS:CSI15:1,2012-11-08T16:00:00Z,28.8332,-90.8320,1022.0,11111222 
WAVCIS,ioos:station:WAVCIS:CSI15:1,2012-11-08T17:00:00Z,28.8332,-90.8320,1021.66,11111222 
WAVCIS,ioos:station:WAVCIS:CSI15:1,2012-11-08T18:00:00Z,28.8332,-90.8320,1021.08,11111222 
WAVCIS,ioos:station:WAVCIS:CSI15:1,2012-11-08T19:00:00Z,28.8332,-90.8320,1020.41,11111222 
WAVCIS,ioos:station:WAVCIS:CSI15:1,2012-11-08T20:00:00Z,28.8332,-90.8320,1019.66,11111222 
WAVCIS,ioos:station:WAVCIS:CSI15:1,2012-11-08T21:00:00Z,28.8332,-90.8320,1019.3,11111222 
WAVCIS,ioos:station:WAVCIS:CSI15:1,2012-11-08T22:00:00Z,28.8332,-90.8320,1019.19,11111222 
WAVCIS,ioos:station:WAVCIS:CSI15:1,2012-11-08T23:00:00Z,28.8332,-90.8320,1019.18,11111222 
WAVCIS,ioos:station:WAVCIS:CSI15:1,2012-11-09T00:00:00Z,28.8332,-90.8320,1019.63,11111222 
WAVCIS,ioos:station:WAVCIS:CSI15:1,2012-11-09T01:00:00Z,28.8332,-90.8320,1019.84,11111222 
WAVCIS,ioos:station:WAVCIS:CSI15:1,2012-11-09T02:00:00Z,28.8332,-90.8320,1019.97,11111222 
WAVCIS,ioos:station:WAVCIS:CSI15:1,2012-11-09T03:00:00Z,28.8332,-90.8320,1020.14,11111222 
WAVCIS,ioos:station:WAVCIS:CSI15:1,2012-11-09T04:00:00Z,28.8332,-90.8320,1020.16,11111222 
WAVCIS,ioos:station:WAVCIS:CSI15:1,2012-11-09T05:00:00Z,28.8332,-90.8320,1020.1,11111222 
WAVCIS,ioos:station:WAVCIS:CSI15:1,2012-11-09T06:00:00Z,28.8332,-90.8320,1019.88,11111222 
WAVCIS,ioos:station:WAVCIS:CSI15:1,2012-11-09T07:00:00Z,28.8332,-90.8320,1019.49,11111222 
WAVCIS,ioos:station:WAVCIS:CSI15:1,2012-11-09T08:00:00Z,28.8332,-90.8320,1019.47,11111222 
WAVCIS,ioos:station:WAVCIS:CSI15:1,2012-11-09T09:00:00Z,28.8332,-90.8320,1019.37,11111222 
WAVCIS,ioos:station:WAVCIS:CSI15:1,2012-11-09T10:00:00Z,28.8332,-90.8320,1019.12,11111222 
WAVCIS,ioos:station:WAVCIS:CSI15:1,2012-11-09T11:00:00Z,28.8332,-90.8320,1019.55,11111222 
WAVCIS,ioos:station:WAVCIS:CSI15:1,2012-11-09T12:00:00Z,28.8332,-90.8320,1020.32,11111222 
WAVCIS,ioos:station:WAVCIS:CSI15:1,2012-11-09T13:00:00Z,28.8332,-90.8320,1020.62,11111222 
WAVCIS,ioos:station:WAVCIS:CSI15:1,2012-11-09T14:00:00Z,28.8332,-90.8320,1020.79,11111222 
WAVCIS,ioos:station:WAVCIS:CSI15:1,2012-11-09T15:00:00Z,28.8332,-90.8320,1021.09,11111222 
WAVCIS,ioos:station:WAVCIS:CSI15:1,2012-11-09T16:00:00Z,28.8332,-90.8320,1021.55,11111222 
WAVCIS,ioos:station:WAVCIS:CSI15:1,2012-11-09T17:00:00Z,28.8332,-90.8320,1021.23,11111222 
WAVCIS,ioos:station:WAVCIS:CSI15:1,2012-11-09T18:00:00Z,28.8332,-90.8320,1020.39,11111222 
WAVCIS,ioos:station:WAVCIS:CSI15:1,2012-11-09T19:00:00Z,28.8332,-90.8320,1019.66,11111222 
WAVCIS,ioos:station:WAVCIS:CSI15:1,2012-11-09T20:00:00Z,28.8332,-90.8320,1019.24,11111222 
WAVCIS,ioos:station:WAVCIS:CSI15:1,2012-11-09T21:00:00Z,28.8332,-90.8320,1019.12,11111222 
WAVCIS,ioos:station:WAVCIS:CSI15:1,2012-11-09T22:00:00Z,28.8332,-90.8320,1018.94,11111222 
WAVCIS,ioos:station:WAVCIS:CSI15:1,2012-11-09T23:00:00Z,28.8332,-90.8320,1018.96,11111222 
WAVCIS,ioos:station:WAVCIS:CSI15:1,2012-11-10T00:00:00Z,28.8332,-90.8320,1019.13,11111222 
WAVCIS,ioos:station:WAVCIS:CSI15:1,2012-11-10T01:00:00Z,28.8332,-90.8320,1019.38,11111222 
WAVCIS,ioos:station:WAVCIS:CSI15:1,2012-11-10T02:00:00Z,28.8332,-90.8320,1019.67,11111222 
WAVCIS,ioos:station:WAVCIS:CSI15:1,2012-11-10T03:00:00Z,28.8332,-90.8320,1019.86,11111222 
WAVCIS,ioos:station:WAVCIS:CSI15:1,2012-11-10T04:00:00Z,28.8332,-90.8320,1019.88,11111222 
WAVCIS,ioos:station:WAVCIS:CSI15:1,2012-11-10T05:00:00Z,28.8332,-90.8320,1019.7,11111222 
WAVCIS,ioos:station:WAVCIS:CSI15:1,2012-11-10T06:00:00Z,28.8332,-90.8320,1019.27,11111222 
WAVCIS,ioos:station:WAVCIS:CSI15:1,2012-11-10T07:00:00Z,28.8332,-90.8320,1019.05,11111222 
WAVCIS,ioos:station:WAVCIS:CSI15:1,2012-11-10T08:00:00Z,28.8332,-90.8320,1018.79,11111222 
WAVCIS,ioos:station:WAVCIS:CSI15:1,2012-11-10T09:00:00Z,28.8332,-90.8320,1018.61,11111222 
WAVCIS,ioos:station:WAVCIS:CSI15:1,2012-11-10T10:00:00Z,28.8332,-90.8320,1018.79,11111222 
WAVCIS,ioos:station:WAVCIS:CSI15:1,2012-11-10T11:00:00Z,28.8332,-90.8320,1018.98,11111222 
WAVCIS,ioos:station:WAVCIS:CSI15:1,2012-11-10T12:00:00Z,28.8332,-90.8320,1018.95,11111222 
WAVCIS,ioos:station:WAVCIS:CSI15:1,2012-11-10T13:00:00Z,28.8332,-90.8320,1019.37,11111222 
WAVCIS,ioos:station:WAVCIS:CSI15:1,2012-11-10T14:00:00Z,28.8332,-90.8320,1019.91,11111222 
WAVCIS,ioos:station:WAVCIS:CSI15:1,2012-11-10T15:00:00Z,28.8332,-90.8320,1020.29,11111222 
WAVCIS,ioos:station:WAVCIS:CSI15:1,2012-11-10T16:00:00Z,28.8332,-90.8320,1020.64,11111222 
WAVCIS,ioos:station:WAVCIS:CSI15:1,2012-11-10T17:00:00Z,28.8332,-90.8320,1020.42,11111222 
WAVCIS,ioos:station:WAVCIS:CSI15:1,2012-11-10T18:00:00Z,28.8332,-90.8320,1019.78,11111222 
WAVCIS,ioos:station:WAVCIS:CSI15:1,2012-11-10T19:00:00Z,28.8332,-90.8320,1019.21,11111222 
WAVCIS,ioos:station:WAVCIS:CSI15:1,2012-11-10T20:00:00Z,28.8332,-90.8320,1018.51,11111222 
WAVCIS,ioos:station:WAVCIS:CSI15:1,2012-11-10T21:00:00Z,28.8332,-90.8320,1018.32,11111222 
WAVCIS,ioos:station:WAVCIS:CSI15:1,2012-11-10T22:00:00Z,28.8332,-90.8320,1018.03,11111222 
WAVCIS,ioos:station:WAVCIS:CSI15:1,2012-11-10T23:00:00Z,28.8332,-90.8320,1018.01,11111222 
WAVCIS,ioos:station:WAVCIS:CSI15:1,2012-11-11T00:00:00Z,28.8332,-90.8320,1018.11,11111222 
WAVCIS,ioos:station:WAVCIS:CSI15:1,2012-11-11T01:00:00Z,28.8332,-90.8320,1018.63,11111222 
WAVCIS,ioos:station:WAVCIS:CSI15:1,2012-11-11T02:00:00Z,28.8332,-90.8320,1018.66,11111222 
WAVCIS,ioos:station:WAVCIS:CSI15:1,2012-11-11T03:00:00Z,28.8332,-90.8320,1018.72,11111222 
WAVCIS,ioos:station:WAVCIS:CSI15:1,2012-11-11T04:00:00Z,28.8332,-90.8320,1018.55,11111222 
WAVCIS,ioos:station:WAVCIS:CSI15:1,2012-11-11T05:00:00Z,28.8332,-90.8320,1018.02,11111222 
WAVCIS,ioos:station:WAVCIS:CSI15:1,2012-11-11T06:00:00Z,28.8332,-90.8320,1017.67,11111222 
WAVCIS,ioos:station:WAVCIS:CSI15:1,2012-11-11T07:00:00Z,28.8332,-90.8320,1017.12,11111222 
WAVCIS,ioos:station:WAVCIS:CSI15:1,2012-11-11T08:00:00Z,28.8332,-90.8320,1016.52,11111222 
WAVCIS,ioos:station:WAVCIS:CSI15:1,2012-11-11T09:00:00Z,28.8332,-90.8320,1016.17,11111222 
WAVCIS,ioos:station:WAVCIS:CSI15:1,2012-11-11T10:00:00Z,28.8332,-90.8320,1015.96,11111222 
WAVCIS,ioos:station:WAVCIS:CSI15:1,2012-11-11T11:00:00Z,28.8332,-90.8320,1016.52,11111222 
WAVCIS,ioos:station:WAVCIS:CSI15:1,2012-11-11T12:00:00Z,28.8332,-90.8320,1016.78,11111222 
WAVCIS,ioos:station:WAVCIS:CSI15:1,2012-11-11T13:00:00Z,28.8332,-90.8320,1016.69,11111222 
WAVCIS,ioos:station:WAVCIS:CSI15:1,2012-11-11T14:00:00Z,28.8332,-90.8320,1016.92,11111222 
WAVCIS,ioos:station:WAVCIS:CSI15:1,2012-11-11T15:00:00Z,28.8332,-90.8320,1017.12,11111222 
WAVCIS,ioos:station:WAVCIS:CSI15:1,2012-11-11T16:00:00Z,28.8332,-90.8320,1017.68,11111222 
WAVCIS,ioos:station:WAVCIS:CSI15:1,2012-11-11T17:00:00Z,28.8332,-90.8320,1017.51,11111222 
WAVCIS,ioos:station:WAVCIS:CSI15:1,2012-11-11T18:00:00Z,28.8332,-90.8320,1016.91,11111222 
WAVCIS,ioos:station:WAVCIS:CSI15:1,2012-11-11T19:00:00Z,28.8332,-90.8320,1016.15,11111222 
WAVCIS,ioos:station:WAVCIS:CSI15:1,2012-11-11T20:00:00Z,28.8332,-90.8320,1015.71,11111222 
WAVCIS,ioos:station:WAVCIS:CSI15:1,2012-11-11T21:00:00Z,28.8332,-90.8320,1015.63,11111222 
WAVCIS,ioos:station:WAVCIS:CSI15:1,2012-11-11T22:00:00Z,28.8332,-90.8320,1015.9,11111222 